When you browse on this site, cookies collect data to enhance your experience and personalize the content and advertising you see.
Visit our Privacy Policy to learn more. By continuing to use the site, you agree to this use of cookies and data.
  • In Hungary
  • List of Countries
  • For 7 days
  • Water Temperature
  • Satellite Maps
  • Weather Map
  • News
  • Weather Widgets
  • user-avatar
    Login

    Hourly Weather Złotoryja

    Today, 17 January, Thursday

    Time Temperature Precipitation Wind Pressure Humidity
    00:00 0°C° 0 mm 4 mps 731 mmHg 77%
    01:00 +1°C° 0 mm 3 mps 730 mmHg 78%
    02:00 +1°C° 0 mm 4 mps 730 mmHg 75%
    03:00 +1°C° 0 mm 5 mps 729 mmHg 72%
    04:00 +1°C° 0 mm 6 mps 729 mmHg 68%
    05:00 +1°C° 0 mm 6 mps 729 mmHg 70%
    06:00 +1°C° 0 mm 6 mps 729 mmHg 71%
    07:00 +1°C° 0 mm 5 mps 729 mmHg 78%
    08:00 +1°C° 0 mm 5 mps 729 mmHg 77%
    09:00 +2°C° 0 mm 6 mps 729 mmHg 76%
    10:00 +3°C° 0 mm 6 mps 730 mmHg 74%
    11:00 +3°C° 0 mm 6 mps 730 mmHg 73%
    12:00 +4°C° 0 mm 6 mps 730 mmHg 71%
    13:00 +5°C° 0 mm 5 mps 730 mmHg 69%
    14:00 +5°C° 0 mm 4 mps 730 mmHg 73%
    15:00 +5°C° 0 mm 3 mps 729 mmHg 76%
    16:00 +4°C° 0 mm 3 mps 729 mmHg 80%
    17:00 +4°C° 0 mm 3 mps 729 mmHg 80%
    18:00 +3°C° 0 mm 4 mps 729 mmHg 81%
    19:00 +2°C° 0 mm 5 mps 729 mmHg 81%
    20:00 +2°C° 0 mm 5 mps 729 mmHg 79%
    21:00 +2°C° 0 mm 6 mps 729 mmHg 76%
    22:00 +2°C° 0 mm 6 mps 730 mmHg 74%
    23:00 +1°C° 0.1 mm 6 mps 730 mmHg 75%

    Tomorrow, 18 January, Friday

    Time Temperature Precipitation Wind Pressure Humidity
    00:00 +1°C° 0.1 mm 6 mps 730 mmHg 77%
    01:00 -1°C° 0.1 mm 6 mps 731 mmHg 78%
    02:00 -1°C° 0 mm 6 mps 731 mmHg 78%
    03:00 -2°C° 0 mm 6 mps 732 mmHg 77%
    04:00 -2°C° 0 mm 7 mps 732 mmHg 77%
    05:00 -3°C° 0.1 mm 7 mps 733 mmHg 78%
    06:00 -3°C° 0.1 mm 7 mps 734 mmHg 78%
    07:00 -3°C° 0.1 mm 7 mps 734 mmHg 78%
    08:00 -3°C° 0 mm 7 mps 735 mmHg 77%
    09:00 -4°C° 0 mm 7 mps 736 mmHg 76%
    10:00 -4°C° 0 mm 7 mps 737 mmHg 75%
    11:00 -4°C° 0 mm 6 mps 738 mmHg 72%
    12:00 -4°C° 0 mm 6 mps 739 mmHg 70%
    13:00 -4°C° 0 mm 6 mps 740 mmHg 67%
    14:00 -4°C° 0 mm 5 mps 740 mmHg 69%
    15:00 -3°C° 0 mm 4 mps 740 mmHg 72%
    16:00 -4°C° 0 mm 3 mps 741 mmHg 74%
    17:00 -4°C° 0 mm 3 mps 741 mmHg 77%
    18:00 -4°C° 0 mm 3 mps 742 mmHg 79%
    19:00 -5°C° 0 mm 3 mps 742 mmHg 82%
    20:00 -5°C° 0 mm 3 mps 742 mmHg 79%
    21:00 -5°C° 0 mm 3 mps 742 mmHg 77%
    22:00 -5°C° 0 mm 3 mps 742 mmHg 74%
    23:00 -5°C° 0 mm 3 mps 743 mmHg 72%

    Day after tomorrow, 19 January, Saturday

    Time Temperature Precipitation Wind Pressure Humidity
    00:00 -5°C° 0 mm 3 mps 743 mmHg 69%
    01:00 -5°C° 0 mm 3 mps 743 mmHg 66%
    02:00 -5°C° 0 mm 3 mps 743 mmHg 67%
    03:00 -4°C° 0 mm 2 mps 743 mmHg 67%
    04:00 -4°C° 0 mm 2 mps 743 mmHg 67%
    05:00 -4°C° 0 mm 2 mps 743 mmHg 68%
    06:00 -4°C° 0 mm 2 mps 743 mmHg 68%
    07:00 -4°C° 0 mm 2 mps 743 mmHg 69%
    08:00 -1°C° 0 mm 1 mps 743 mmHg 66%
    09:00 0°C° 0 mm 1 mps 743 mmHg 63%
    10:00 0°C° 0 mm 1 mps 743 mmHg 60%
    11:00 +1°C° 0 mm 1 mps 743 mmHg 59%
    12:00 +2°C° 0 mm 1 mps 743 mmHg 57%
    13:00 +3°C° 0 mm 1 mps 743 mmHg 56%
    14:00 +2°C° 0 mm 1 mps 742 mmHg 59%
    15:00 -1°C° 0 mm 2 mps 742 mmHg 63%
    16:00 -2°C° 0 mm 2 mps 742 mmHg 66%
    17:00 -2°C° 0 mm 2 mps 741 mmHg 67%
    18:00 -3°C° 0 mm 2 mps 741 mmHg 68%
    19:00 -3°C° 0 mm 2 mps 741 mmHg 69%
    20:00 -3°C° 0 mm 2 mps 741 mmHg 68%
    21:00 -3°C° 0 mm 2 mps 741 mmHg 66%
    22:00 -4°C° 0 mm 2 mps 741 mmHg 64%
    23:00 -4°C° 0 mm 2 mps 741 mmHg 64%

    20 January, Sunday

    Time Temperature Precipitation Wind Pressure Humidity
    00:00 -2°C° 0 mm 1 mps 741 mmHg 64%
    01:00 -2°C° 0 mm 1 mps 740 mmHg 64%
    02:00 -2°C° 0 mm 1 mps 740 mmHg 66%
    03:00 -2°C° 0 mm 1 mps 740 mmHg 68%
    04:00 -2°C° 0 mm 1 mps 739 mmHg 70%
    05:00 -2°C° 0 mm 1 mps 739 mmHg 71%
    06:00 -2°C° 0 mm 1 mps 739 mmHg 72%
    07:00 -3°C° 0 mm 0 mps 739 mmHg 73%
    08:00 -3°C° 0 mm 0 mps 740 mmHg 70%
    09:00 -2°C° 0 mm 0 mps 740 mmHg 68%
    10:00 -1°C° 0 mm 0 mps 740 mmHg 65%
    11:00 -1°C° 0 mm 0 mps 740 mmHg 63%
    12:00 0°C° 0 mm 0 mps 740 mmHg 61%
    13:00 +1°C° 0 mm 0 mps 740 mmHg 58%
    14:00 0°C° 0 mm 0 mps 740 mmHg 62%
    15:00 0°C° 0 mm 1 mps 740 mmHg 65%
    16:00 0°C° 0 mm 1 mps 741 mmHg 68%
    17:00 -1°C° 0 mm 1 mps 741 mmHg 70%
    18:00 -1°C° 0 mm 1 mps 741 mmHg 73%
    19:00 -3°C° 0 mm 0 mps 741 mmHg 75%
    20:00 -3°C° 0 mm 0 mps 742 mmHg 75%
    21:00 -3°C° 0 mm 0 mps 742 mmHg 75%
    22:00 -3°C° 0 mm 0 mps 743 mmHg 75%
    23:00 -4°C° 0 mm 0 mps 743 mmHg 76%

    21 January, Monday

    Time Temperature Precipitation Wind Pressure Humidity
    00:00 -4°C° 0 mm 0 mps 743 mmHg 76%
    01:00 -4°C° 0 mm 0 mps 744 mmHg 76%
    02:00 -4°C° 0 mm 0 mps 744 mmHg 75%
    03:00 -4°C° 0 mm 0 mps 744 mmHg 75%
    04:00 -4°C° 0 mm 0 mps 744 mmHg 75%
    05:00 -4°C° 0 mm 0 mps 744 mmHg 74%
    06:00 -4°C° 0 mm 0 mps 744 mmHg 73%
    07:00 -4°C° 0 mm 0 mps 745 mmHg 72%
    08:00 -4°C° 0 mm 0 mps 745 mmHg 67%
    09:00 -3°C° 0 mm 0 mps 745 mmHg 63%
    10:00 -1°C° 0 mm 1 mps 745 mmHg 58%
    11:00 0°C° 0 mm 1 mps 745 mmHg 54%
    12:00 +1°C° 0 mm 1 mps 745 mmHg 49%
    13:00 +2°C° 0 mm 1 mps 745 mmHg 45%
    14:00 +1°C° 0 mm 1 mps 745 mmHg 48%
    15:00 0°C° 0 mm 1 mps 744 mmHg 52%
    16:00 0°C° 0 mm 1 mps 744 mmHg 55%
    17:00 -1°C° 0 mm 1 mps 744 mmHg 58%
    18:00 -1°C° 0 mm 1 mps 744 mmHg 60%
    19:00 -4°C° 0 mm 2 mps 744 mmHg 63%
    20:00 -4°C° 0 mm 2 mps 744 mmHg 63%
    21:00 -4°C° 0 mm 2 mps 743 mmHg 62%
    22:00 -4°C° 0 mm 2 mps 743 mmHg 62%
    23:00 -4°C° 0 mm 2 mps 743 mmHg 61%

    22 January, Tuesday

    Time Temperature Precipitation Wind Pressure Humidity
    00:00 -4°C° 0 mm 2 mps 742 mmHg 60%
    01:00 -4°C° 0 mm 2 mps 742 mmHg 59%
    02:00 -4°C° 0 mm 2 mps 742 mmHg 60%
    03:00 -5°C° 0 mm 2 mps 741 mmHg 62%
    04:00 -5°C° 0 mm 2 mps 740 mmHg 63%
    05:00 -5°C° 0 mm 2 mps 740 mmHg 64%
    06:00 -3°C° 0 mm 1 mps 740 mmHg 65%
    07:00 -3°C° 0 mm 1 mps 739 mmHg 66%
    08:00 -2°C° 0 mm 1 mps 739 mmHg 63%
    09:00 -1°C° 0 mm 1 mps 739 mmHg 59%
    10:00 -3°C° 0 mm 2 mps 739 mmHg 56%
    11:00 0°C° 0 mm 1 mps 739 mmHg 53%
    12:00 +1°C° 0 mm 1 mps 738 mmHg 50%
    13:00 +2°C° 0 mm 1 mps 738 mmHg 47%
    14:00 -1°C° 0 mm 2 mps 737 mmHg 51%
    15:00 -1°C° 0 mm 2 mps 737 mmHg 55%
    16:00 -2°C° 0 mm 2 mps 736 mmHg 59%
    17:00 -3°C° 0 mm 2 mps 736 mmHg 62%
    18:00 -4°C° 0 mm 3 mps 735 mmHg 65%
    19:00 -5°C° 0 mm 3 mps 735 mmHg 69%
    20:00 -5°C° 0 mm 3 mps 735 mmHg 69%
    21:00 -5°C° 0 mm 3 mps 735 mmHg 69%
    22:00 -5°C° 0 mm 3 mps 734 mmHg 69%
    23:00 -5°C° 0 mm 3 mps 734 mmHg 67%
    Show more